This is the latest recevied weather packets stored in our database for station/object DM4XI-13. If no packets are shown the sender has not sent any weather packets the latest 10 day(s).
| Time | Temp. | Humidity | Pressure | Rain* | Wind** | Luminosity | Snow |
|---|---|---|---|---|---|---|---|
| 1778172124 | 11.67° C | 79% | 1012.6 hPa | 0 mm | 0.89 m/s, 277° | 31 W/m² | - |
| 1778172063 | 11.67° C | 80% | 1012.6 hPa | 0 mm | 0.89 m/s, 329° | 29 W/m² | - |
| 1778172002 | 11.67° C | 79% | 1012.4 hPa | 0 mm | 0 m/s | 27 W/m² | - |
| 1778171942 | 11.67° C | 79% | 1012.5 hPa | 0 mm | 0.89 m/s, 294° | 26 W/m² | - |
| 1778171880 | 11.67° C | 78% | 1012.4 hPa | 0 mm | 0.89 m/s, 303° | 26 W/m² | - |
| 1778171819 | 11.67° C | 78% | 1012.6 hPa | 0 mm | 1.34 m/s, 340° | 27 W/m² | - |
| 1778171758 | 11.67° C | 78% | 1012.4 hPa | 0 mm | 0.89 m/s, 250° | 28 W/m² | - |
| 1778171697 | 11.67° C | 78% | 1012.5 hPa | 0 mm | 0.89 m/s, 276° | 29 W/m² | - |
| 1778171646 | 11.67° C | 77% | 1012.3 hPa | 0 mm | 0.89 m/s, 266° | 29 W/m² | - |
| 1778171575 | 11.67° C | 77% | 1012.5 hPa | 0 mm | 0 m/s | 30 W/m² | - |
| 1778171514 | 11.67° C | 76% | 1012.6 hPa | 0 mm | 0.45 m/s, 265° | 31 W/m² | - |
| 1778171453 | 11.67° C | 76% | 1012.6 hPa | 0 mm | 0.89 m/s, 258° | 36 W/m² | - |
| 1778171392 | 11.67° C | 77% | 1012.5 hPa | 0 mm | 0.89 m/s, 308° | 42 W/m² | - |
| 1778171331 | 11.67° C | 77% | 1012.5 hPa | 0 mm | 0.45 m/s, 233° | 51 W/m² | - |
| 1778171270 | 11.67° C | 77% | 1012.5 hPa | 0 mm | 0.45 m/s, 232° | 58 W/m² | - |
| 1778171209 | 11.67° C | 77% | 1012.3 hPa | 0 mm | 0.45 m/s, 253° | 60 W/m² | - |
| 1778171148 | 11.67° C | 76% | 1012.3 hPa | 0 mm | 0.45 m/s, 266° | 64 W/m² | - |
| 1778171087 | 11.67° C | 76% | 1012.3 hPa | 0 mm | 0 m/s | 66 W/m² | - |
| 1778171026 | 11.67° C | 77% | 1012.4 hPa | 0 mm | 0 m/s | 66 W/m² | - |
| 1778170965 | 11.67° C | 76% | 1012.2 hPa | 0 mm | 0 m/s | 68 W/m² | - |
| 1778170904 | 11.67° C | 76% | 1012.5 hPa | 0 mm | 0.89 m/s, 293° | 67 W/m² | - |
| 1778170843 | 11.67° C | 75% | 1012.4 hPa | 0 mm | 1.34 m/s, 272° | 64 W/m² | - |
| 1778170782 | 11.67° C | 75% | 1012.3 hPa | 0 mm | 0.45 m/s, 274° | 59 W/m² | - |
| 1778170721 | 11.67° C | 75% | 1012.4 hPa | 0 mm | 1.34 m/s, 296° | 60 W/m² | - |
| 1778170660 | 11.67° C | 76% | 1012.4 hPa | 0 mm | 0.89 m/s, 234° | 63 W/m² | - |
* Rain latest hour (hover to see other rain measurements)
** Current wind speed in m/s (hover to see current wind gust speed)